Weather History for Dumas, TX

Change the Weather History Date:

Wednesday, February 20, 2013

  Actual Average (KBGD) Record (KBGD)
Temperature  
Mean Temperature 36 °F 43 °F  
Max Temperature 39 °F 56 °F 84 °F (1981)
Min Temperature 32 °F 30 °F 6 °F (1955)
Degree Days  
Heating Degree Days 30 22  
Month to date heating degree days 473  
Since 1 July heating degree days 2825  
Cooling Degree Days 0 0  
Month to date cooling degree days 0  
Year to date cooling degree days 0  
Moisture  
Dew Point 33 °F    
Average Humidity 95    
Maximum Humidity 100    
Minimum Humidity 49    
Precipitation  
Precipitation 0.09 in 0.02 in 0.68 in (1990)
Month to date precipitation 0.47  
Year to date precipitation 1.06  
Snow  
Snow 0.00 in - 3.50 in (1969)
Month to date snowfall  
Since 1 July snowfall  
Snow Depth -    
Sea Level Pressure  
Sea Level Pressure 29.79 in    
Wind  
Wind Speed 16 mph (SE)    
Max Wind Speed 25 mph    
Max Gust Speed 34 mph    
Visibility 5 miles    
Events Fog , Rain , Snow    
T = Trace of Precipitation, MM = Missing Value Source: NWS Daily Summary

Daily Weather History Graph

Daily Weather History Graph

Search for Another Location

Airport:

Trip Planner

Search our weather history database for the weather conditions in past years. The results will help you decide how hot, cold, wet, or windy it might be!

Date:

Astronomy

Feb. 20, 2013 Rise Set
Actual Time 7:29 AM CST 6:34 PM CST
Civil Twilight 7:03 AM CST 7:00 PM CST
Nautical Twilight 6:33 AM CST 7:30 PM CST
Astronomical Twilight 6:03 AM CST 8:00 PM CST
Moon 2:03 PM CST (2/20) 3:45 AM CST (2/20)
Length of Visible Light 11h 57m
Length of Day
11h 05m
Waxing Gibbous, 76% of the Moon is Illuminated
Feb 20
Waxing Gibbous
Feb 25
Full
Mar 4
Last Quarter
Mar 11
New
Mar 19
First Quarter

Hourly Weather History & Observations

Time (CST) Temp. Windchill Dew Point Humidity Pressure Visibility Wind Dir Wind Speed Gust Speed Precip Events Conditions
12:15 AM 39.2 °F 31.2 °F 21.2 °F 49% 29.93 in 10.0 mi SE 13.8 mph - N/A Rain Light Rain
12:35 AM 35.6 °F 27.1 °F 26.6 °F 70% 29.92 in 7.0 mi SE 12.7 mph - N/A Snow Light Snow
12:55 AM 35.6 °F 29.2 °F 30.2 °F 81% 29.93 in 10.0 mi SSE 8.1 mph 12.7 mph 0.01 in Rain Light Rain
1:15 AM 35.6 °F 25.5 °F 32.0 °F 87% 29.92 in 7.0 mi SSE 17.3 mph 21.9 mph 0.01 in Snow Light Snow
1:35 AM 35.6 °F 27.1 °F 32.0 °F 87% 29.92 in 7.0 mi SSE 12.7 mph 23.0 mph 0.02 in Rain Light Rain
1:55 AM 35.6 °F 28.0 °F 32.0 °F 87% 29.92 in 10.0 mi SSE 10.4 mph - 0.03 in Rain Light Rain
2:15 AM 35.6 °F 27.5 °F 32.0 °F 87% 29.91 in 10.0 mi SE 11.5 mph - N/A Rain Light Rain
2:55 AM 35.6 °F 27.5 °F 32.0 °F 87% 29.88 in 10.0 mi SE 11.5 mph - 0.01 in   Light Drizzle
3:15 AM 35.6 °F 27.5 °F 33.8 °F 93% 29.88 in 7.0 mi SE 11.5 mph - 0.01 in Rain Light Rain
3:35 AM 35.6 °F 25.9 °F 33.8 °F 93% 29.86 in 10.0 mi SSE 16.1 mph 20.7 mph 0.01 in   Light Drizzle
3:55 AM 37.4 °F 27.8 °F 35.6 °F 93% 29.85 in 10.0 mi SSE 17.3 mph - 0.01 in   Overcast
4:15 AM 37.4 °F 27.2 °F 35.6 °F 93% 29.85 in 7.0 mi SSE 19.6 mph 25.3 mph N/A   Overcast
4:35 AM 37.4 °F 27.8 °F 37.4 °F 100% 29.85 in 4.0 mi SSE 17.3 mph - N/A   Light Drizzle
4:55 AM 37.4 °F 27.2 °F 37.4 °F 100% 29.85 in 3.0 mi South 19.6 mph 24.2 mph N/A   Overcast
5:15 AM 37.4 °F 27.5 °F 35.6 °F 93% 29.85 in 10.0 mi SSE 18.4 mph 21.9 mph N/A   Overcast
5:35 AM 37.4 °F 28.2 °F 35.6 °F 93% 29.85 in 10.0 mi SSE 16.1 mph - N/A Rain Light Rain
5:55 AM 37.4 °F 28.2 °F 35.6 °F 93% 29.84 in 10.0 mi SSE 16.1 mph - N/A   Overcast
6:15 AM 37.4 °F 28.2 °F 35.6 °F 93% 29.85 in 10.0 mi South 16.1 mph - N/A   Overcast
6:35 AM 37.4 °F 29.3 °F 35.6 °F 93% 29.86 in 10.0 mi South 12.7 mph - N/A   Overcast
7:15 AM 37.4 °F 28.9 °F 35.6 °F 93% 29.85 in 10.0 mi SSE 13.8 mph - N/A   Overcast
7:35 AM 37.4 °F 29.8 °F 35.6 °F 93% 29.86 in 10.0 mi SSE 11.5 mph - N/A   Overcast
7:55 AM 37.4 °F 28.9 °F 35.6 °F 93% 29.86 in 10.0 mi SSE 13.8 mph - N/A   Overcast
8:35 AM 35.6 °F 24.8 °F 33.8 °F 93% 29.86 in 10.0 mi SSE 19.6 mph 24.2 mph N/A   Overcast
8:55 AM 35.6 °F 25.9 °F 33.8 °F 93% 29.85 in 10.0 mi SE 16.1 mph - N/A   Overcast
9:15 AM 35.6 °F 25.5 °F 33.8 °F 93% 29.85 in 10.0 mi SSE 17.3 mph 20.7 mph N/A   Overcast
9:35 AM 35.6 °F 25.5 °F 33.8 °F 93% 29.85 in 10.0 mi SSE 17.3 mph 23.0 mph N/A   Overcast
9:55 AM 35.6 °F 25.9 °F 33.8 °F 93% 29.85 in 10.0 mi SSE 16.1 mph - N/A   Overcast
10:15 AM 35.6 °F 26.6 °F 33.8 °F 93% 29.84 in 7.0 mi SSE 13.8 mph - 0.01 in Rain Rain
10:35 AM 35.6 °F 26.2 °F 35.6 °F 100% 29.84 in 7.0 mi SSE 15.0 mph - 0.01 in   Overcast
10:55 AM 35.6 °F 26.2 °F 35.6 °F 100% 29.84 in 7.0 mi SE 15.0 mph - 0.01 in   Overcast
11:15 AM 35.6 °F 25.9 °F 35.6 °F 100% 29.83 in 3.0 mi SE 16.1 mph 23.0 mph N/A   Overcast
11:35 AM 35.6 °F 24.8 °F 35.6 °F 100% 29.82 in 1.2 mi SE 19.6 mph - N/A   Overcast
11:55 AM 35.6 °F 24.8 °F 35.6 °F 100% 29.82 in 1.2 mi SE 19.6 mph 25.3 mph N/A   Light Drizzle
12:15 PM 35.6 °F 25.2 °F 35.6 °F 100% 29.82 in 0.8 mi SSE 18.4 mph 26.5 mph 0.01 in Rain Rain
12:35 PM 35.6 °F 24.5 °F 35.6 °F 100% 29.81 in 2.0 mi SSE 20.7 mph 25.3 mph 0.01 in   Overcast
12:55 PM 35.6 °F 25.5 °F 33.8 °F 93% 29.77 in 1.8 mi SE 17.3 mph - 0.02 in Rain Rain
1:15 PM 35.6 °F 25.9 °F 33.8 °F 93% 29.79 in 4.0 mi SSE 16.1 mph - N/A   Overcast
1:35 PM 35.6 °F 25.5 °F 33.8 °F 93% 29.77 in 3.0 mi SE 17.3 mph 23.0 mph N/A   Overcast
1:55 PM 35.6 °F 24.2 °F 33.8 °F 93% 29.75 in 2.5 mi SSE 21.9 mph - N/A   Overcast
2:15 PM 33.8 °F 22.8 °F 33.8 °F 100% 29.74 in 2.5 mi SE 18.4 mph 24.2 mph N/A   Overcast
2:35 PM 33.8 °F 23.2 °F 33.8 °F 100% 29.73 in 4.0 mi SE 17.3 mph 26.5 mph N/A   Overcast
2:55 PM 33.8 °F 21.9 °F 33.8 °F 100% 29.73 in 4.0 mi SSE 21.9 mph 26.5 mph N/A   Overcast
3:15 PM 33.8 °F 22.8 °F 33.8 °F 100% 29.72 in 2.0 mi SE 18.4 mph 26.5 mph N/A   Overcast
3:35 PM 33.8 °F 22.2 °F 33.8 °F 100% 29.71 in 1.5 mi SE 20.7 mph 26.5 mph N/A   Overcast
3:55 PM 33.8 °F 22.5 °F 33.8 °F 100% 29.71 in 1.5 mi SE 19.6 mph 23.0 mph N/A   Overcast
4:15 PM 33.8 °F 22.8 °F 33.8 °F 100% 29.71 in 1.5 mi SSE 18.4 mph 28.8 mph N/A   Overcast
4:35 PM 33.8 °F 21.6 °F 33.8 °F 100% 29.70 in 1.0 mi SSE 23.0 mph 28.8 mph N/A   Overcast
4:55 PM 33.8 °F 22.5 °F 32.0 °F 93% 29.70 in 0.8 mi SE 19.6 mph - N/A   Overcast
5:15 PM 33.8 °F 23.5 °F 32.0 °F 93% 29.71 in 0.5 mi SE 16.1 mph - N/A Fog Fog
5:35 PM 33.8 °F 22.2 °F 32.0 °F 93% 29.69 in 1.0 mi SE 20.7 mph 25.3 mph N/A   Overcast
5:55 PM 32.0 °F 19.8 °F 32.0 °F 100% 29.69 in 0.5 mi SE 20.7 mph 26.5 mph N/A Fog Fog
6:15 PM 32.0 °F 19.8 °F 32.0 °F 100% 29.69 in 2.0 mi SE 20.7 mph 28.8 mph N/A   Overcast
6:35 PM 32.0 °F 19.8 °F 32.0 °F 100% 29.68 in 1.8 mi SE 20.7 mph 28.8 mph N/A   Overcast
7:15 PM 32.0 °F 18.6 °F 32.0 °F 100% 29.67 in 1.5 mi SE 25.3 mph 34.5 mph N/A   Overcast
7:35 PM 32.0 °F 18.9 °F 32.0 °F 100% 29.66 in 1.2 mi SE 24.2 mph 33.4 mph N/A   Overcast
7:55 PM 32.0 °F 18.9 °F 32.0 °F 100% 29.68 in 0.8 mi SE 24.2 mph 32.2 mph N/A   Overcast
8:15 PM 32.0 °F 19.5 °F 32.0 °F 100% 29.69 in 0.8 mi SE 21.9 mph 31.1 mph N/A   Overcast
8:35 PM 32.0 °F 20.1 °F 32.0 °F 100% 29.72 in 1.5 mi ESE 19.6 mph 25.3 mph N/A   Overcast
8:55 PM 32.0 °F 20.5 °F 32.0 °F 100% 29.71 in 1.5 mi ESE 18.4 mph 23.0 mph N/A   Overcast
9:15 PM 32.0 °F 20.1 °F 32.0 °F 100% 29.72 in 2.0 mi SE 19.6 mph 23.0 mph N/A   Overcast
9:35 PM 32.0 °F 19.8 °F 32.0 °F 100% 29.71 in 2.0 mi SE 20.7 mph - N/A   Overcast
9:55 PM 32.0 °F 20.1 °F 32.0 °F 100% 29.72 in 1.8 mi SE 19.6 mph 24.2 mph N/A   Overcast
10:35 PM 32.0 °F 20.5 °F 32.0 °F 100% 29.71 in 1.8 mi SE 18.4 mph 25.3 mph N/A   Overcast
10:55 PM 32.0 °F 19.2 °F 32.0 °F 100% 29.71 in 1.2 mi SE 23.0 mph - N/A   Overcast
11:15 PM 32.0 °F 20.1 °F 32.0 °F 100% 29.66 in 2.0 mi ESE 19.6 mph 24.2 mph N/A   Overcast
11:35 PM 32.0 °F 19.8 °F 32.0 °F 100% 29.65 in 7.0 mi ESE 20.7 mph - N/A   Overcast
11:55 PM 32.0 °F 19.8 °F 32.0 °F 100% 29.64 in 1.8 mi ESE 20.7 mph 27.6 mph N/A   Overcast